MOLNIYA 1-90

Last updated on Nov. 14, 2019, 4:22 a.m. UTC

1 24960U 97054A   19316.45458443  .00000001  00000-0  38574-4 0  9995
2 24960  63.2262  34.4160 6407097 300.0894  11.8300  3.18686960177790
UTC
Height (km)
Latitude
Longitude
Inclination
Orbital Period
UTC large
Height (km)
Speed (km/s)
/
Latitude / Longitude
Inclination (degrees)
Orbital Period (minutes)
Azimuth
Elevation
Range (km)
Doppler Factor
iOS Compass Heading
iOS Angle

Next 30 passes for location: Hong Kong

Rise time Rise Azimuth (degrees) Set time Set Azimuth (degrees) Duration Max altitude (degrees)

No matching passes for this satellites